{"data":{"norad_id":53849,"epoch":"2026-05-25T04:43:10.293888Z","epoch_age_seconds":61480,"freshness":"FRESH","line1":"1 53849U 22114AH  26145.19664692 -.00002551  00000+0 -14221-3 0  9997","line2":"2 53849  53.2144 310.5191 0001491  82.9254 277.1907 15.08851145204529","mean_motion":15.08851145,"eccentricity":0.0001491,"inclination_deg":53.2144,"raan_deg":310.5191,"arg_perigee_deg":82.9254,"mean_anomaly_deg":277.1907,"bstar":-0.00014221,"rev_number":20452,"period_min":95.436849736426,"perigee_km":538.6778724806,"apogee_km":540.74077425423,"semimajor_km":6917.8463233674,"source":"CELESTRAK","updated_at":"2026-05-25T13:38:17.576067Z"}}